Tracking 19145 objects as of 25-Apr-2018
HD Live streaming from Space Station
objects crossing your sky now

BEIDOU 3M6

Track BEIDOU 3M6 now!
BEIDOU 3M6 is classified as:


NORAD ID: 43208
Int'l Code: 2018-018B
Perigee: 21,507.1 km
Apogee: 21,563.1 km
Inclination: 55.0 °
Period: 773.2 minutes
Semi major axis: 27906 km
RCS: Unknown
Launch date: February 12, 2018
Source: People's Republic of China (PRC)
Launch site: Xichang Space Center, China (XSC)
aabbcc
Your satellite tracking list
Your tracking list is empty




NASA's NSSDC Master Catalog

Two Line Element Set (TLE):
1 43208U 18018B   18113.94736407  .00000028  00000-0  00000+0 0  9998
2 43208  54.9887 162.7660 0010044 286.2454  73.7153  1.86232018  1310
Source of the keplerian elements: AFSPC